SCP
-0 0 -0 -0 -1 -1 -1 -2 -2 -2 -2 -2 -1 -1 -1 -0 -0 -0 -0 -0 0 -0 -0 -0 -0 -0 -0 0 0 0 0 0 0
-0 0 0 -1 -0 -1 -1 -2 -2 -2 -2 -1 -2 -1 -1 -0 -0 -0 -0 -0 -0 0 0 0 0 -0 0 0 0 0 0 0 0
0 0 0 -1 -1 -1 -1 -3 -2 -2 -3 -2 -2 -1 -1 -0 -0 -0 -0 -0 -0 0 0 0 -0 -0 0 0 0 0 0 0 0
0 -0 -1 -1 -0 -1 -1 -2 -3 -3 -3 -2 -2 -1 -1 -1 -0 -0 -0 -0 0 0 1 0 -0 -0 0 0 0 0 0 0 0
-0 -0 -0 -0 -0 -0 -1 -1 -3 -4 -3 -3 -2 -1 -1 -1 -1 -1 -0 -0 0 0 0 0 0 0 0 0 0 0 0 0 0
0 0 0 0 0 1 -0 -0 -2 -4 -4 -3 -1 -1 -0 -1 -1 -1 -1 -0 0 0 0 0 0 0 0 0 0 0 0 0 0
0 0 1 0 0 1 1 0 -1 -2 -3 -3 -2 -0 0 -1 -1 -1 -1 -1 -0 0 0 0 0 0 0 0 0 0 0 0 0
1 1 1 1 1 0 2 1 1 0 -1 -2 -2 -1 -1 -1 -0 -0 -0 -0 -0 -0 -0 0 0 0 0 0 0 0 0 0 0
1 2 2 1 1 1 1 3 2 2 1 0 0 0 -0 -0 0 1 0 0 -0 -0 -0 -0 0 0 0 0 0 0 0 0 0
0 2 5 3 3 1 2 4 4 3 3 3 2 2 1 1 1 0 0 0 0 -0 0 0 0 0 0 0 0 0 0 0 0
0 0 0 3 4 5 2 2 5 5 4 2 3 3 3 2 1 1 0 0 0 0 0 0 0 0 0 0 0 0 0 0 0
0 0 0 -0 -0 2 3 2 4 4 5 2 3 3 4 3 2 1 0 0 0 0 0 0 0 0 0 0 0 0 0 0 0
-0 -0 0 -0 -0 -0 1 2 3 5 5 6 5 5 5 4 3 1 1 0 0 0 0 0 0 0 0 0 0 0 0 0 0
0 0 1 1 1 0 1 2 4 5 7 7 8 6 5 4 2 1 1 0 0 0 0 0 0 0 0 0 0 0 0 0 0
1 1 0 0 1 1 1 2 3 5 7 9 7 6 4 3 2 1 0 0 0 0 0 0 0 0 0 0 0 0 0 0 0
0 0 0 0 0 1 1 1 2 3 4 5 5 4 3 3 2 1 0 0 0 0 0 0 0 0 0 0 0 0 0 0 0
0 0 1 -0 -1 0 1 1 1 2 2 3 3 4 3 2 1 0 0 0 0 0 0 0 0 0 0 0 0 0 0 0 0
0 0 0 1 -0 -0 -0 0 -0 0 1 2 2 3 3 2 1 0 0 0 0 0 0 0 0 0 0 0 0 0 0 0 0
0 0 0 1 0 -1 -1 -1 -0 -1 1 1 2 3 2 0 0 0 0 0 0 0 0 0 0 0 0 0 0 0 0 0 0
0 0 0 0 0 0 0 0 0 -0 0 1 2 2 1 0 0 0 0 0 0 0 0 0 0 0 0 0 0 0 0 0 0
Wind_Speed_500mb
53 48 69 93 101 93 88 89 85 77 69 61 60 55 58 58 44 45 41 37 26 19 15 19 17 22 24 23 18 16 18 21 21
74 70 66 92 102 98 91 93 90 82 66 55 56 59 55 62 56 50 47 37 26 28 29 27 29 28 26 22 24 22 20 20 20
36 76 77 85 99 98 96 92 88 85 68 57 50 57 52 57 63 59 50 37 39 39 38 41 38 36 32 30 27 24 25 23 22
21 51 89 85 84 97 95 96 90 88 77 67 57 56 55 54 61 62 57 51 48 46 45 45 43 38 34 30 27 26 27 27 20
29 22 81 86 91 88 89 97 92 93 87 76 66 54 59 56 56 63 65 62 53 56 52 47 42 37 33 32 25 26 25 28 25
20 23 23 76 95 91 91 100 96 96 93 83 71 67 63 62 61 61 67 69 59 57 53 51 47 43 38 34 29 24 28 33 25
37 33 27 21 70 85 92 98 99 97 96 87 79 73 69 68 67 67 63 70 66 61 54 49 48 44 38 32 28 26 29 27 24
30 22 20 20 25 47 84 96 98 96 95 92 84 74 69 73 71 68 71 71 72 67 57 51 48 40 36 32 29 30 27 26 27
29 18 7 13 22 19 48 91 103 99 96 94 88 79 72 71 71 74 80 76 75 67 60 57 44 39 36 31 29 30 23 26 31
89 95 54 36 35 35 28 66 94 97 98 91 87 81 75 77 79 86 86 78 72 65 63 56 44 42 37 33 33 33 24 21 28
87 109 95 66 47 40 38 22 81 90 90 86 80 77 78 85 91 93 87 78 66 64 65 54 50 45 39 37 38 33 34 25 23
21 61 104 69 58 49 42 17 57 83 84 80 77 81 86 93 94 96 90 80 73 67 65 58 53 46 43 38 40 41 39 32 29
13 13 36 47 37 46 42 16 30 88 85 86 85 85 90 91 94 94 87 83 75 70 63 58 52 49 43 39 42 42 43 41 38
12 23 34 49 38 36 33 14 38 72 77 83 84 82 86 90 90 84 85 75 71 67 61 54 53 50 46 43 42 41 41 49 44
36 35 42 44 52 46 30 18 15 44 63 70 66 77 81 83 80 81 86 74 70 61 58 55 56 54 49 47 44 41 38 50 49
36 38 32 40 41 43 47 28 10 23 38 50 64 63 69 74 72 77 77 74 68 64 59 57 58 56 52 51 48 43 40 47 50
27 43 41 44 41 36 35 44 28 16 20 40 50 57 63 65 71 70 73 65 59 63 59 62 62 60 54 50 48 45 45 49 50
21 36 46 41 45 42 35 29 32 26 23 27 40 53 61 67 71 69 70 66 62 58 53 58 61 59 52 51 53 43 42 49 50
30 39 44 43 38 39 40 37 30 32 23 29 35 46 61 70 72 72 76 67 55 51 52 52 53 49 43 47 48 29 26 31 37
41 43 46 48 46 41 35 41 41 35 31 28 42 50 58 76 80 73 72 55 51 61 62 53 48 47 41 42 49 41 36 36 39
Wind_Direction_500mb
219 236 197 189 190 191 193 200 201 205 207 210 215 216 213 216 208 209 211 218 206 190 209 193 214 221 225 235 243 241 246 252 269
216 217 223 191 188 192 193 198 201 204 208 210 216 218 216 215 213 208 212 211 207 202 217 220 228 230 238 241 250 247 242 247 258
244 217 213 185 188 191 195 199 202 203 209 209 216 219 221 215 216 211 213 212 211 214 215 221 228 238 238 250 244 231 236 242 254
342 190 185 185 185 193 196 197 199 202 206 209 210 217 220 216 212 213 210 212 212 213 217 222 225 236 239 247 238 228 224 236 239
166 87 184 189 189 193 193 196 198 201 203 210 215 215 219 218 211 212 209 212 214 219 221 221 227 234 243 241 234 230 224 231 234
165 130 114 190 189 193 196 197 199 202 205 211 214 213 218 217 213 211 211 215 214 219 222 227 230 233 242 236 235 229 226 224 222
58 54 57 70 190 194 198 197 199 204 205 210 214 213 216 220 216 212 210 212 214 219 225 227 229 237 230 228 228 224 219 218 224
88 59 15 21 17 198 203 198 199 206 205 207 210 212 217 221 217 213 211 211 214 222 225 221 234 226 219 220 221 224 220 218 202
107 97 60 293 306 311 221 207 202 204 207 207 207 211 216 216 213 214 214 216 217 219 219 221 225 218 215 215 219 223 217 206 194
17 354 1 6 343 331 337 218 206 204 208 208 210 213 214 212 210 213 212 216 218 216 217 224 216 214 212 211 211 209 208 210 199
21 351 314 345 358 7 351 271 209 206 206 208 211 212 213 211 210 211 209 213 226 221 218 221 216 212 209 210 208 200 210 220 198
329 331 315 338 331 348 345 301 227 207 201 206 209 210 210 213 210 208 208 216 225 225 217 217 213 210 209 208 206 198 204 212 196
183 208 311 336 326 331 347 324 233 208 202 201 204 208 211 212 210 210 212 227 220 216 218 215 209 206 214 212 209 205 206 206 202
2 355 350 0 341 333 344 356 217 208 203 203 208 211 211 212 212 211 219 220 216 213 214 210 208 208 210 216 210 208 210 204 201
1 343 339 349 360 350 325 341 218 210 205 206 215 214 213 214 216 214 215 216 220 217 212 207 207 208 207 214 217 214 212 205 202
347 346 319 334 343 357 351 324 307 215 221 221 220 224 232 216 212 210 214 217 218 211 207 206 208 208 209 214 213 213 212 209 207
318 330 334 314 327 332 353 354 335 270 231 229 237 235 231 221 216 213 214 216 219 213 204 203 208 211 214 215 217 214 209 204 207
308 318 316 320 305 314 324 336 341 325 272 251 236 231 230 215 212 216 217 222 214 214 212 216 216 219 220 218 219 212 213 208 207
295 296 305 305 299 299 305 318 316 331 275 256 246 236 223 225 218 216 210 204 205 209 209 213 220 231 231 225 230 198 191 200 202
287 287 286 289 287 297 287 296 301 308 306 244 234 232 231 216 213 213 206 202 211 205 203 210 216 215 217 216 213 219 211 204 201
Wind_Speed_850mb
53 48 69 93 101 93 88 89 85 77 69 61 60 55 58 58 44 45 41 37 26 19 15 19 17 22 24 23 18 16 18 21 21
74 70 66 92 102 98 91 93 90 82 66 55 56 59 55 62 56 50 47 37 26 28 29 27 29 28 26 22 24 22 20 20 20
36 76 77 85 99 98 96 92 88 85 68 57 50 57 52 57 63 59 50 37 39 39 38 41 38 36 32 30 27 24 25 23 22
21 51 89 85 84 97 95 96 90 88 77 67 57 56 55 54 61 62 57 51 48 46 45 45 43 38 34 30 27 26 27 27 20
29 22 81 86 91 88 89 97 92 93 87 76 66 54 59 56 56 63 65 62 53 56 52 47 42 37 33 32 25 26 25 28 25
20 23 23 76 95 91 91 100 96 96 93 83 71 67 63 62 61 61 67 69 59 57 53 51 47 43 38 34 29 24 28 33 25
37 33 27 21 70 85 92 98 99 97 96 87 79 73 69 68 67 67 63 70 66 61 54 49 48 44 38 32 28 26 29 27 24
30 22 20 20 25 47 84 96 98 96 95 92 84 74 69 73 71 68 71 71 72 67 57 51 48 40 36 32 29 30 27 26 27
29 18 7 13 22 19 48 91 103 99 96 94 88 79 72 71 71 74 80 76 75 67 60 57 44 39 36 31 29 30 23 26 31
89 95 54 36 35 35 28 66 94 97 98 91 87 81 75 77 79 86 86 78 72 65 63 56 44 42 37 33 33 33 24 21 28
87 109 95 66 47 40 38 22 81 90 90 86 80 77 78 85 91 93 87 78 66 64 65 54 50 45 39 37 38 33 34 25 23
21 61 104 69 58 49 42 17 57 83 84 80 77 81 86 93 94 96 90 80 73 67 65 58 53 46 43 38 40 41 39 32 29
13 13 36 47 37 46 42 16 30 88 85 86 85 85 90 91 94 94 87 83 75 70 63 58 52 49 43 39 42 42 43 41 38
12 23 34 49 38 36 33 14 38 72 77 83 84 82 86 90 90 84 85 75 71 67 61 54 53 50 46 43 42 41 41 49 44
36 35 42 44 52 46 30 18 15 44 63 70 66 77 81 83 80 81 86 74 70 61 58 55 56 54 49 47 44 41 38 50 49
36 38 32 40 41 43 47 28 10 23 38 50 64 63 69 74 72 77 77 74 68 64 59 57 58 56 52 51 48 43 40 47 50
27 43 41 44 41 36 35 44 28 16 20 40 50 57 63 65 71 70 73 65 59 63 59 62 62 60 54 50 48 45 45 49 50
21 36 46 41 45 42 35 29 32 26 23 27 40 53 61 67 71 69 70 66 62 58 53 58 61 59 52 51 53 43 42 49 50
30 39 44 43 38 39 40 37 30 32 23 29 35 46 61 70 72 72 76 67 55 51 52 52 53 49 43 47 48 29 26 31 37
41 43 46 48 46 41 35 41 41 35 31 28 42 50 58 76 80 73 72 55 51 61 62 53 48 47 41 42 49 41 36 36 39
Wind_Direction_850mb
219 236 197 189 190 191 193 200 201 205 207 210 215 216 213 216 208 209 211 218 206 190 209 193 214 221 225 235 243 241 246 252 269
216 217 223 191 188 192 193 198 201 204 208 210 216 218 216 215 213 208 212 211 207 202 217 220 228 230 238 241 250 247 242 247 258
244 217 213 185 188 191 195 199 202 203 209 209 216 219 221 215 216 211 213 212 211 214 215 221 228 238 238 250 244 231 236 242 254
342 190 185 185 185 193 196 197 199 202 206 209 210 217 220 216 212 213 210 212 212 213 217 222 225 236 239 247 238 228 224 236 239
166 87 184 189 189 193 193 196 198 201 203 210 215 215 219 218 211 212 209 212 214 219 221 221 227 234 243 241 234 230 224 231 234
165 130 114 190 189 193 196 197 199 202 205 211 214 213 218 217 213 211 211 215 214 219 222 227 230 233 242 236 235 229 226 224 222
58 54 57 70 190 194 198 197 199 204 205 210 214 213 216 220 216 212 210 212 214 219 225 227 229 237 230 228 228 224 219 218 224
88 59 15 21 17 198 203 198 199 206 205 207 210 212 217 221 217 213 211 211 214 222 225 221 234 226 219 220 221 224 220 218 202
107 97 60 293 306 311 221 207 202 204 207 207 207 211 216 216 213 214 214 216 217 219 219 221 225 218 215 215 219 223 217 206 194
17 354 1 6 343 331 337 218 206 204 208 208 210 213 214 212 210 213 212 216 218 216 217 224 216 214 212 211 211 209 208 210 199
21 351 314 345 358 7 351 271 209 206 206 208 211 212 213 211 210 211 209 213 226 221 218 221 216 212 209 210 208 200 210 220 198
329 331 315 338 331 348 345 301 227 207 201 206 209 210 210 213 210 208 208 216 225 225 217 217 213 210 209 208 206 198 204 212 196
183 208 311 336 326 331 347 324 233 208 202 201 204 208 211 212 210 210 212 227 220 216 218 215 209 206 214 212 209 205 206 206 202
2 355 350 0 341 333 344 356 217 208 203 203 208 211 211 212 212 211 219 220 216 213 214 210 208 208 210 216 210 208 210 204 201
1 343 339 349 360 350 325 341 218 210 205 206 215 214 213 214 216 214 215 216 220 217 212 207 207 208 207 214 217 214 212 205 202
347 346 319 334 343 357 351 324 307 215 221 221 220 224 232 216 212 210 214 217 218 211 207 206 208 208 209 214 213 213 212 209 207
318 330 334 314 327 332 353 354 335 270 231 229 237 235 231 221 216 213 214 216 219 213 204 203 208 211 214 215 217 214 209 204 207
308 318 316 320 305 314 324 336 341 325 272 251 236 231 230 215 212 216 217 222 214 214 212 216 216 219 220 218 219 212 213 208 207
295 296 305 305 299 299 305 318 316 331 275 256 246 236 223 225 218 216 210 204 205 209 209 213 220 231 231 225 230 198 191 200 202
287 287 286 289 287 297 287 296 301 308 306 244 234 232 231 216 213 213 206 202 211 205 203 210 216 215 217 216 213 219 211 204 201